RH
32 44 53 36 35 30 29 30 34 29 22 22 26 25 21 27 41 59 68 68 69 68 65 72 69 67 67 68 65 64 60 60 60 68 78 80 79 79 78 79 79 78 78 76
37 52 35 29 35 36 36 38 37 32 26 26 28 28 24 35 47 55 59 66 67 69 71 74 74 68 66 71 69 67 65 64 63 65 73 79 77 78 78 77 78 80 79 77
42 37 32 33 37 39 38 38 32 29 25 24 24 29 25 22 31 49 51 56 60 66 75 74 76 72 71 73 71 69 66 64 67 68 72 76 77 77 76 79 80 84 82 81
40 31 31 37 41 39 43 30 30 31 34 44 25 37 27 25 24 50 55 59 62 65 71 71 76 79 73 74 72 71 68 66 67 65 64 68 74 79 85 84 84 81 81 82
39 35 40 37 32 32 39 29 32 34 35 35 32 38 29 26 26 53 56 60 63 66 72 73 78 76 73 74 73 73 70 69 70 69 70 72 80 84 84 84 85 84 82 83
36 28 32 35 31 29 25 35 35 38 44 58 37 36 27 29 22 31 56 59 61 69 72 73 77 77 79 76 75 73 70 74 74 75 78 78 78 82 85 87 86 87 84 85
42 40 35 32 41 30 30 40 72 61 68 50 32 36 26 22 22 26 59 62 62 74 77 80 83 84 82 80 77 75 73 79 77 78 81 81 81 83 87 85 87 87 88 82
60 60 41 35 38 42 38 33 59 59 65 41 36 48 30 27 24 26 51 58 66 76 76 79 80 80 81 82 78 76 76 81 79 80 83 84 82 85 86 83 85 88 92 87
57 52 27 30 29 32 38 48 34 44 65 74 51 38 32 54 46 50 62 66 77 80 80 81 80 79 80 82 78 76 76 81 81 82 82 82 82 84 82 80 80 83 90 80
44 60 30 26 25 28 34 30 46 68 90 84 48 47 46 62 60 66 72 76 80 80 82 80 78 81 81 78 77 76 76 81 81 81 82 81 81 83 81 76 80 80 80 68
37 39 40 35 36 30 36 37 42 43 46 60 60 50 52 50 71 74 72 76 82 85 81 80 78 82 82 77 79 79 80 81 81 80 80 79 76 78 78 82 78 73 70 66
82 71 52 40 30 27 31 36 37 59 55 66 48 46 39 50 63 64 72 76 84 79 81 79 79 85 88 86 83 83 82 82 81 79 79 81 78 76 71 74 75 72 69 61
88 97 96 60 42 32 35 30 34 40 58 54 61 55 57 58 68 70 84 86 82 82 80 79 82 84 85 89 85 82 82 81 80 81 78 78 75 73 73 75 76 74 66 47
90 100 100 96 99 96 81 72 70 59 57 67 65 45 63 65 70 76 82 82 85 80 76 76 80 81 84 86 86 81 80 80 83 75 70 72 74 74 74 78 78 76 65 50
98 99 100 100 98 98 99 95 71 93 68 60 63 51 62 72 78 80 82 82 83 79 79 74 77 78 81 83 84 82 79 81 81 70 72 76 77 76 76 77 81 81 60 63
90 98 99 96 100 100 90 71 78 84 98 100 99 95 61 63 71 78 78 80 81 78 76 71 71 79 82 83 88 84 86 85 71 72 77 78 78 78 76 73 79 80 62 69
100 98 97 94 93 96 90 82 72 79 98 92 94 79 74 79 69 57 71 75 77 75 71 69 79 79 85 84 82 83 86 83 73 75 79 79 80 81 76 66 66 66 70 74
99 98 98 95 96 98 54 56 62 62 71 70 66 65 64 67 51 60 62 73 74 70 70 74 78 77 77 79 82 90 98 91 78 79 79 82 83 80 73 63 58 69 76 80
76 86 97 96 96 70 46 51 81 75 71 58 61 56 50 53 55 68 70 76 74 75 76 80 71 73 80 85 94 98 89 82 82 86 82 84 79 76 77 77 70 67 75 83
81 80 88 98 95 91 58 54 52 53 74 46 51 50 51 67 89 79 94 94 90 83 80 78 76 82 88 97 89 86 98 93 90 86 80 78 77 77 78 84 79 71 63 80
88 96 92 92 91 80 61 49 48 63 56 48 52 57 62 69 84 93 98 97 95 86 82 82 87 92 95 86 82 96 96 89 82 80 79 80 84 89 88 90 83 74 68 68
88 93 95 93 96 91 52 55 62 62 52 57 58 67 77 97 100 99 99 98 96 94 90 89 92 93 86 83 84 95 90 85 81 80 82 77 83 94 100 95 90 76 64 60
83 82 91 80 82 64 52 49 46 57 61 50 59 86 95 98 99 99 99 98 96 93 92 91 93 85 82 81 81 85 98 95 88 79 76 79 85 88 98 99 97 88 70 63
65 73 80 74 57 70 64 61 62 65 68 62 72 95 95 99 99 99 98 98 98 95 93 92 86 82 80 79 78 82 96 97 76 82 89 95 91 96 99 99 98 91 76 68
72 76 78 84 69 68 62 68 67 73 76 84 94 94 98 97 98 97 98 98 98 97 96 90 84 84 83 83 93 96 96 90 85 92 100 98 98 97 100 99 96 88 81 63
82 78 80 79 58 60 64 65 75 81 78 88 97 96 95 94 97 98 98 96 96 98 97 95 95 97 100 100 98 97 97 89 86 94 97 96 95 90 90 94 97 91 74 73
Wind_Speed
3 3 8 22 14 2 1 3 5 4 5 4 7 10 15 8 13 12 13 14 13 12 13 19 23 22 19 15 14 10 10 11 12 16 16 11 14 14 15 14 15 16 17 18
1 8 14 3 7 8 8 9 10 7 6 4 10 13 13 13 17 22 20 16 15 10 12 16 22 21 16 16 15 13 13 11 11 11 11 8 9 11 12 11 12 15 17 17
10 7 5 13 8 5 8 13 11 15 3 5 1 9 5 7 6 10 11 14 15 19 19 15 16 20 19 18 17 16 15 14 12 10 11 12 9 7 10 14 14 16 17 18
10 8 13 5 9 10 17 10 13 10 3 6 7 10 8 10 10 15 17 14 16 16 14 14 15 19 20 19 19 16 15 14 12 11 13 12 11 9 11 11 11 13 16 16
9 4 8 16 17 13 4 4 10 10 9 6 8 5 6 7 14 14 15 17 17 16 16 15 16 22 21 23 21 18 16 15 13 12 12 14 15 13 11 11 11 13 14 15
5 3 5 7 7 15 8 3 1 2 4 8 9 7 18 10 14 6 17 16 18 16 15 13 17 23 24 23 21 17 16 16 13 13 13 13 14 12 12 12 12 12 13 14
15 24 13 8 6 4 5 5 2 3 3 13 12 8 29 3 8 11 19 19 17 15 15 14 14 18 23 26 22 18 16 17 13 13 13 12 13 13 13 11 11 11 14 15
9 6 20 14 23 10 12 13 6 7 5 7 7 11 9 6 6 4 13 18 16 17 15 15 16 20 22 27 23 19 18 17 14 13 14 12 12 12 13 12 11 11 13 12
4 8 3 6 15 18 10 9 17 11 3 1 5 7 5 1 4 4 12 17 19 18 18 17 18 20 23 27 23 20 19 17 15 14 13 13 11 11 11 11 12 10 9 7
5 8 5 4 5 16 19 8 6 3 10 17 14 6 8 4 8 4 11 16 15 16 16 15 16 20 22 25 22 19 17 17 16 14 12 11 10 10 10 11 9 10 9 10
9 10 20 11 8 15 5 15 8 5 15 17 19 13 8 10 10 14 16 14 16 17 17 15 15 19 24 25 23 21 19 18 16 14 12 12 12 10 7 8 9 9 6 8
2 4 12 24 21 15 5 2 15 11 18 6 16 20 4 7 13 11 11 11 11 13 14 14 18 21 22 25 24 23 21 19 17 15 14 13 12 12 11 11 9 7 6 7
7 2 5 12 14 15 12 18 16 10 3 19 16 13 5 4 7 8 12 12 12 12 14 14 15 18 20 21 25 24 22 20 19 17 17 18 15 14 13 11 9 7 7 9
2 3 4 3 5 6 6 8 12 13 13 14 17 22 2 4 6 7 10 13 12 13 14 12 12 15 19 20 23 25 23 22 19 22 21 20 18 15 12 10 9 8 8 9
4 3 4 3 3 4 6 13 14 8 14 16 18 18 4 4 6 5 9 12 14 15 15 15 13 12 19 21 23 26 27 25 24 24 22 21 18 15 12 10 9 9 9 9
5 3 2 5 5 5 8 13 13 6 5 4 3 6 8 2 6 7 12 15 16 18 18 18 19 22 25 28 26 24 22 25 29 25 23 20 18 15 12 11 11 10 10 10
5 4 2 3 4 3 7 7 9 3 4 2 4 6 11 14 7 12 11 15 19 19 20 22 22 21 31 32 30 26 27 28 29 27 23 20 17 15 13 13 14 14 13 13
5 5 4 2 6 4 6 5 7 11 11 12 12 14 13 15 12 10 12 17 18 19 21 20 15 24 28 29 30 31 30 28 29 27 24 21 18 16 16 17 18 17 16 17
13 6 3 3 4 6 8 6 6 7 6 9 15 16 14 9 5 6 6 4 11 12 12 16 24 29 32 34 33 32 28 29 25 25 25 22 21 20 20 21 20 19 18 17
10 9 4 2 2 4 3 1 2 2 4 1 4 5 2 4 1 6 3 5 7 5 18 25 32 35 37 36 39 34 30 28 25 26 25 23 22 23 22 22 20 19 16 16
7 3 14 6 5 6 6 6 1 2 4 2 1 2 3 4 4 4 4 4 4 6 20 26 30 29 30 36 38 30 28 26 28 25 25 23 23 24 24 23 20 18 15 14
7 7 4 5 5 7 6 3 6 6 4 4 3 3 3 2 2 2 3 4 5 11 18 23 24 24 30 34 34 30 26 29 28 26 25 24 25 25 25 24 21 18 15 16
3 6 5 7 6 6 3 4 4 3 4 4 4 4 5 6 5 4 3 5 6 10 15 19 23 25 25 28 32 28 28 31 29 28 27 27 26 25 23 25 23 20 16 16
3 3 3 3 4 6 7 4 6 4 6 4 4 6 8 6 9 6 6 6 6 11 14 21 23 23 22 24 26 31 32 30 30 29 28 26 26 23 21 22 25 21 18 16
4 6 5 3 5 5 8 6 4 3 3 0 4 4 7 9 7 7 7 8 7 10 13 18 21 21 22 24 27 32 32 31 27 26 24 26 25 23 21 22 23 19 15 13
4 6 4 4 7 4 6 5 2 4 5 6 5 6 5 6 8 7 7 9 12 13 14 16 18 22 22 25 28 30 31 30 28 25 23 23 24 22 22 21 16 12 13 15
Wind_Direction
198 161 199 217 208 252 343 238 233 232 236 231 235 244 250 189 183 166 173 172 172 169 158 154 147 139 132 127 117 112 112 110 132 128 118 111 81 68 57 45 33 26 20 17
242 235 238 280 202 217 232 246 257 280 242 209 268 254 239 165 189 182 180 179 173 161 163 163 154 150 150 139 124 117 103 106 115 132 134 133 105 73 62 44 33 25 20 18
207 201 222 220 231 223 232 233 246 249 336 256 189 275 234 213 160 188 197 186 177 173 168 167 165 161 153 147 136 125 108 97 98 115 137 135 127 99 55 45 40 34 26 26
245 214 250 210 234 200 244 217 240 250 220 252 170 271 242 215 213 180 191 183 183 179 169 165 163 162 160 151 143 130 116 110 105 109 117 122 104 87 64 55 48 39 30 31
227 191 211 231 228 206 242 238 222 222 234 255 236 277 231 204 214 201 194 190 189 182 171 166 166 164 158 153 145 135 123 108 103 103 103 105 97 92 87 70 58 48 38 37
235 241 191 206 235 220 226 230 55 72 131 245 197 195 251 211 218 186 194 193 185 175 167 157 159 159 155 153 146 138 124 108 104 104 104 103 97 93 84 69 63 58 50 44
238 252 249 239 289 212 175 140 283 242 196 239 168 194 251 251 218 207 186 186 183 168 160 157 158 160 153 155 151 140 132 117 113 108 102 96 93 90 86 77 77 74 55 44
185 281 210 203 213 196 205 205 208 205 198 243 177 232 242 212 211 197 178 182 166 167 165 164 163 162 156 157 155 148 137 129 123 113 107 100 92 90 84 79 75 68 57 38
223 265 245 175 209 197 216 201 235 263 111 32 221 288 277 132 252 183 164 164 175 172 165 163 161 160 155 159 158 154 141 136 127 118 111 99 93 89 90 86 82 65 75 50
288 291 201 240 201 227 214 184 211 175 234 247 250 255 244 200 229 173 169 185 174 164 158 159 159 154 155 161 158 152 148 143 137 128 120 111 100 103 104 95 75 76 70 40
268 239 264 327 216 234 212 229 231 234 210 231 249 252 205 226 189 189 196 181 172 167 160 156 150 150 154 160 163 155 153 150 145 140 134 129 117 121 120 117 103 91 64 45
352 288 260 250 252 280 312 296 236 232 233 248 239 252 180 232 200 191 175 162 158 160 152 149 151 149 151 162 164 162 157 159 151 149 150 148 145 139 129 123 117 98 66 52
357 283 273 286 273 249 246 258 259 260 248 238 242 254 15 88 134 153 148 150 155 151 145 146 151 158 159 164 166 166 169 165 159 161 157 150 147 146 136 130 130 102 71 60
234 261 239 299 353 329 328 354 337 287 249 253 252 247 261 153 149 150 150 153 152 155 151 157 161 161 165 168 169 170 176 168 163 160 153 149 154 152 142 137 125 104 77 83
123 290 270 201 308 316 324 322 319 347 285 228 255 253 185 154 120 122 144 149 152 165 169 171 166 167 168 167 174 179 177 171 169 162 157 154 155 149 150 137 123 106 94 97
199 206 254 279 225 238 288 280 281 314 312 48 339 273 336 132 140 156 170 171 181 184 179 177 177 166 183 184 176 173 169 164 168 163 160 157 156 151 153 135 126 120 110 110
206 187 210 256 222 242 261 234 242 172 237 253 264 238 278 295 244 244 221 190 191 189 186 191 193 187 178 172 166 166 163 165 168 164 162 159 158 156 144 134 127 120 120 111
215 197 197 228 201 237 248 127 173 234 224 211 245 250 235 246 252 254 231 203 201 198 197 198 179 176 173 164 159 155 167 164 162 160 161 162 163 154 146 135 124 126 119 110
210 192 243 216 219 288 284 193 175 193 254 203 212 237 251 229 235 221 239 266 222 212 204 192 178 163 157 156 158 157 152 158 162 157 162 168 165 156 150 137 135 130 120 118
199 209 210 154 213 243 283 13 142 119 293 236 273 290 250 107 182 249 349 308 304 262 166 150 154 153 155 160 156 152 152 158 158 163 167 168 165 160 151 146 141 130 126 124
177 185 225 219 237 278 253 255 191 179 232 251 219 270 172 209 211 355 327 0 14 83 116 134 145 152 149 150 150 147 153 156 168 168 165 163 164 159 158 151 147 135 134 129
162 164 180 188 222 260 214 260 185 210 230 242 225 191 178 168 102 19 23 46 65 104 119 134 135 137 147 151 149 147 151 161 166 167 163 162 159 159 164 164 154 143 136 124
169 180 176 170 209 223 245 228 274 269 236 241 216 186 167 149 166 152 133 115 112 116 122 131 133 138 145 148 148 144 151 162 163 163 160 158 160 161 165 168 160 154 145 131
199 144 176 149 218 230 225 242 245 274 272 264 191 168 175 173 159 149 130 121 121 131 139 137 138 139 138 143 148 154 157 159 159 154 155 157 160 162 166 170 172 169 157 147
182 140 170 278 279 285 274 227 213 246 272 83 79 141 193 162 155 151 150 147 140 132 143 148 143 140 138 140 145 157 158 158 152 151 151 157 159 163 165 172 176 177 176 172
186 166 163 213 223 197 251 280 217 204 210 205 158 148 160 173 153 148 150 151 151 150 152 141 140 137 141 144 150 157 159 159 153 152 154 154 155 158 159 158 147 160 155 146